PulseSat

PulseSat

MOLNIYA 3-50

Last updated on Feb. 17, 2019, 3:06 a.m. UTC

1 25847U 99036A   19047.37521379  .00000574  00000-0  60699-2 0  9999
2 25847  62.1113 162.7545 7195046 271.1898  14.9942  2.00637333143699
UTC
Height (km)
Latitude
Longitude
Inclination
Orbital Period

Next 30 passes for location: Hong Kong

Rise time Rise Azimuth (degrees) Set time Set Azimuth (degrees) Duration Max altitude (degrees)

No matching passes for this satellites

PulseSat

PulseSat is the new satellites software and hardware trackering solution by Pulsely.
Satellite Two Line Element Set source: US Air Force Space Command

Download PulseSat for iOS
© 2017 Pulsely Limited